Weather History for Fort Rucker / Ozark, AL

Change the Weather History Date:

Wednesday, March 27, 2013

  Actual Average (KOZR) Record (KOZR)
Temperature  
Mean Temperature 46 °F -  
Max Temperature 61 °F 70 °F 84 °F (2012)
Min Temperature 30 °F 47 °F 29 °F (2013)
Degree Days  
Heating Degree Days 20    
Moisture  
Dew Point 26 °F    
Average Humidity 52    
Maximum Humidity 82    
Minimum Humidity 24    
Precipitation  
Precipitation 0.00 in - - ()
Sea Level Pressure  
Sea Level Pressure 30.31 in    
Wind  
Wind Speed 5 mph (NNW)    
Max Wind Speed 12 mph    
Max Gust Speed 17 mph    
Visibility 10 miles    
Events      
Averages and records for this station are not official NWS values.
T = Trace of Precipitation, MM = Missing Value Source: NWS Daily Summary

Daily Weather History Graph

Daily Weather History Graph

Search for Another Location

Airport:

Trip Planner

Search our weather history database for the weather conditions in past years. The results will help you decide how hot, cold, wet, or windy it might be!

Date:

Astronomy

Mar. 27, 2013 Rise Set
Actual Time 6:37 AM CDT 6:58 PM CDT
Civil Twilight 6:12 AM CDT 7:23 PM CDT
Nautical Twilight 5:44 AM CDT 7:51 PM CDT
Astronomical Twilight 5:15 AM CDT 8:20 PM CDT
Moon 7:36 PM CDT (3/27) 6:30 AM CDT (3/27)
Length of Visible Light 13h 10m
Length of Day
12h 21m
Full, 100% of the Moon is Illuminated
Mar 27
Full
Apr 2
Last Quarter
Apr 10
New
Apr 18
First Quarter
Apr 25
Full

Hourly Weather History & Observations

Time (CDT) Temp. Windchill Dew Point Humidity Pressure Visibility Wind Dir Wind Speed Gust Speed Precip Events Conditions
12:53 AM 35.1 °F 32.2 °F 27.0 °F 72% 30.32 in 10.0 mi NW 3.5 mph - N/A   Clear
1:53 AM 34.0 °F 31.0 °F 27.0 °F 75% 30.32 in 10.0 mi NW 3.5 mph - N/A   Clear
2:53 AM 32.0 °F - 26.1 °F 79% 30.32 in 10.0 mi Calm Calm - N/A   Clear
3:53 AM 30.9 °F 26.2 °F 26.1 °F 82% 30.31 in 10.0 mi NW 4.6 mph - N/A   Clear
4:53 AM 32.0 °F 26.4 °F 26.1 °F 79% 30.32 in 10.0 mi NNW 5.8 mph - N/A   Clear
5:53 AM 32.0 °F 27.5 °F 25.0 °F 75% 30.32 in 10.0 mi NNW 4.6 mph - N/A   Clear
6:53 AM 30.9 °F 26.2 °F 25.0 °F 79% 30.35 in 10.0 mi NNW 4.6 mph - N/A   Clear
7:53 AM 37.0 °F 34.5 °F 27.0 °F 67% 30.38 in 10.0 mi NNW 3.5 mph - N/A   Clear
8:53 AM 43.0 °F 37.7 °F 25.0 °F 49% 30.38 in 10.0 mi North 9.2 mph 17.3 mph N/A   Clear
9:53 AM 46.0 °F 40.6 °F 21.9 °F 39% 30.38 in 10.0 mi NNE 11.5 mph - N/A   Clear
10:53 AM 48.0 °F - 23.0 °F 37% 30.37 in 10.0 mi North 5.8 mph 16.1 mph N/A   Clear
11:53 AM 51.1 °F - 23.0 °F 33% 30.36 in 10.0 mi NE 5.8 mph - N/A   Clear
12:53 PM 54.0 °F - 23.0 °F 30% 30.33 in 10.0 mi Variable 4.6 mph - N/A   Clear
1:53 PM 55.9 °F - 21.9 °F 27% 30.30 in 10.0 mi NNW 8.1 mph - N/A   Clear
2:53 PM 57.9 °F - 23.0 °F 26% 30.27 in 10.0 mi WNW 10.4 mph - N/A   Clear
3:53 PM 61.0 °F - 24.1 °F 24% 30.25 in 10.0 mi Variable 4.6 mph - N/A   Clear
4:53 PM 61.0 °F - 25.0 °F 25% 30.23 in 10.0 mi Variable 5.8 mph - N/A   Clear
5:53 PM 60.1 °F - 24.1 °F 25% 30.24 in 10.0 mi NW 5.8 mph - N/A   Clear
6:53 PM 55.9 °F - 26.1 °F 32% 30.25 in 10.0 mi NW 3.5 mph - N/A   Clear
7:53 PM 50.0 °F - 30.0 °F 46% 30.27 in 10.0 mi NNW 4.6 mph - N/A   Clear
8:53 PM 48.0 °F - 30.0 °F 50% 30.28 in 10.0 mi NNW 4.6 mph - N/A   Clear
9:53 PM 45.0 °F 41.8 °F 30.0 °F 56% 30.28 in 10.0 mi North 5.8 mph - N/A   Clear
10:53 PM 42.1 °F - 30.9 °F 65% 30.28 in 10.0 mi Calm Calm - N/A   Clear
11:53 PM 39.0 °F - 30.9 °F 73% 30.27 in 10.0 mi Calm Calm - N/A   Clear